Bellefontaine, OH

12:39 PM EDT on September 26, 2017 (GMT -0400)
Bellefontaine

Weather History for KEDJ - December, 2012

Change the Weather History Date:

Tuesday, December 11, 2012

  Actual Average (KDLZ) Record (KDLZ)
Temperature  
Mean Temperature 29 °F -  
Max Temperature 32 °F 38 °F 70 °F (1971)
Min Temperature 26 °F 22 °F -8 °F (1958)
Degree Days  
Heating Degree Days 36    
Moisture  
Dew Point 29 °F    
Average Humidity 92    
Maximum Humidity 100    
Minimum Humidity 75    
Precipitation  
Precipitation 0.01 in - - ()
Sea Level Pressure  
Sea Level Pressure 30.03 in    
Wind  
Wind Speed 2 mph (SSW)    
Max Wind Speed 13 mph    
Max Gust Speed 17 mph    
Visibility 8 miles    
Events      
Averages and records for this station are not official NWS values.
T = Trace of Precipitation, MM = Missing Value Source: NWS Daily Summary

Daily Weather History Graph

Daily Weather History Graph

Search for Another Location

Airport or City:

Trip Planner

Search our weather history database for the weather conditions in past years. The results will help you decide how hot, cold, wet, or windy it might be!

Date:

Astronomy

Dec. 11, 2012 Rise Set
Actual Time 7:48 AM EST 5:09 PM EST
Civil Twilight 7:17 AM EST 5:39 PM EST
Nautical Twilight 6:43 AM EST 6:13 PM EST
Astronomical Twilight 6:10 AM EST 6:46 PM EST
Moon 5:42 AM EST (12/11) 3:47 PM EST (12/11)
Length of Visible Light 10h 21m
Length of Day
9h 20m
Waning Crescent, 4% of the Moon is Illuminated
Dec 11
Waning Crescent
Dec 13
New
Dec 20
First Quarter
Dec 28
Full
Jan 4
Last Quarter

Hourly Weather History & Observations

Time (EST) Temp. Windchill Dew Point Humidity Pressure Visibility Wind Dir Wind Speed Gust Speed Precip Events Conditions
12:05 AM 32.0 °F - 32.0 °F 100% 29.87 in 3.0 mi Calm Calm - 0.00 in   Overcast
12:25 AM 32.0 °F - 32.0 °F 100% 29.86 in 1.8 mi Calm Calm - 0.00 in   Overcast
12:45 AM 32.0 °F - 32.0 °F 100% 29.86 in 2.5 mi Calm Calm - 0.00 in   Overcast
1:05 AM 32.0 °F - 32.0 °F 100% 29.86 in 2.5 mi Calm Calm - 0.00 in   Overcast
1:25 AM 32.0 °F - 32.0 °F 100% 29.86 in 2.0 mi Calm Calm - 0.00 in   Overcast
1:45 AM 32.0 °F - 32.0 °F 100% 29.86 in 3.0 mi Calm Calm - 0.00 in   Overcast
2:05 AM 32.0 °F - 32.0 °F 100% 29.87 in 3.0 mi Calm Calm - 0.00 in   Overcast
2:25 AM 32.0 °F - 32.0 °F 100% 29.87 in 4.0 mi Calm Calm - 0.00 in   Overcast
2:45 AM 32.0 °F - 32.0 °F 100% 29.88 in 3.0 mi Calm Calm - 0.01 in   Overcast
3:05 AM 32.0 °F - 32.0 °F 100% 29.89 in 3.0 mi Calm Calm - 0.00 in   Overcast
3:25 AM 32.0 °F - 32.0 °F 100% 29.90 in 3.0 mi Calm Calm - 0.00 in   Overcast
3:45 AM 32.0 °F - 32.0 °F 100% 29.90 in 3.0 mi Calm Calm - 0.00 in   Overcast
4:05 AM 32.0 °F - 32.0 °F 100% 29.90 in 4.0 mi Calm Calm - 0.00 in   Overcast
4:25 AM 32.0 °F - 32.0 °F 100% 29.91 in 4.0 mi Calm Calm - 0.00 in   Overcast
4:45 AM 32.0 °F - 32.0 °F 100% 29.92 in 5.0 mi Calm Calm - 0.00 in   Overcast
5:05 AM 32.0 °F - 32.0 °F 100% 29.92 in 5.0 mi Calm Calm - 0.00 in   Overcast
5:25 AM 32.0 °F - 32.0 °F 100% 29.93 in 5.0 mi Calm Calm - 0.00 in   Overcast
5:45 AM 32.0 °F - 32.0 °F 100% 29.93 in 5.0 mi Calm Calm - 0.00 in   Overcast
6:05 AM 32.0 °F - 32.0 °F 100% 29.94 in 5.0 mi Calm Calm - 0.00 in   Overcast
6:25 AM 32.0 °F - 32.0 °F 100% 29.95 in 5.0 mi Calm Calm - 0.00 in   Overcast
6:45 AM 32.0 °F - 32.0 °F 100% 29.96 in 5.0 mi Calm Calm - 0.00 in   Overcast
7:05 AM 32.0 °F - 32.0 °F 100% 29.96 in 6.0 mi Calm Calm - 0.00 in   Overcast
7:25 AM 32.0 °F - 32.0 °F 100% 29.97 in 7.0 mi Calm Calm - 0.00 in   Overcast
7:45 AM 32.0 °F - 32.0 °F 100% 29.98 in 9.0 mi Calm Calm - 0.00 in   Overcast
8:05 AM 32.0 °F - 32.0 °F 100% 29.99 in 7.0 mi Calm Calm - 0.00 in   Overcast
8:25 AM 32.0 °F - 32.0 °F 100% 30.00 in 4.0 mi Calm Calm - 0.00 in   Overcast
9:05 AM 32.0 °F - 32.0 °F 100% 30.02 in 7.0 mi Calm Calm - 0.00 in   Overcast
9:25 AM 32.0 °F - 30.2 °F 93% 30.03 in 9.0 mi Calm Calm - 0.00 in   Overcast
9:45 AM 32.0 °F - 30.2 °F 93% 30.03 in 9.0 mi Calm Calm - 0.00 in   Overcast
10:05 AM 32.0 °F - 32.0 °F 100% 30.04 in 7.0 mi Calm Calm - 0.00 in   Overcast
10:25 AM 32.0 °F - 30.2 °F 93% 30.05 in 8.0 mi Calm Calm - 0.00 in   Overcast
10:45 AM 32.0 °F - 30.2 °F 93% 30.06 in 8.0 mi Calm Calm - 0.00 in   Overcast
11:05 AM 32.0 °F - 28.4 °F 87% 30.06 in 9.0 mi Calm Calm - 0.00 in   Overcast
11:25 AM 32.0 °F - 28.4 °F 87% 30.07 in 9.0 mi Calm Calm - 0.00 in   Mostly Cloudy
11:45 AM 32.0 °F - 26.6 °F 80% 30.07 in 10.0 mi Calm Calm - 0.00 in   Mostly Cloudy
12:05 PM 32.0 °F - 26.6 °F 80% 30.06 in 10.0 mi Calm Calm - 0.00 in   Overcast
12:25 PM 32.0 °F - 26.6 °F 80% 30.06 in 9.0 mi Calm Calm - 0.00 in   Overcast
12:45 PM 32.0 °F - 28.4 °F 87% 30.05 in 10.0 mi Calm Calm - 0.00 in   Mostly Cloudy
1:05 PM 32.0 °F - 26.6 °F 80% 30.05 in 10.0 mi Calm Calm - 0.00 in   Overcast
1:25 PM 32.0 °F 24.2 °F 26.6 °F 80% 30.05 in 10.0 mi WSW 9.2 mph - 0.00 in   Overcast
1:45 PM 32.0 °F 23.0 °F 26.6 °F 80% 30.06 in 10.0 mi SW 11.5 mph - 0.00 in   Overcast
2:05 PM 32.0 °F 23.0 °F 24.8 °F 75% 30.06 in 10.0 mi WSW 11.5 mph - 0.00 in   Overcast
2:25 PM 32.0 °F 23.0 °F 26.6 °F 80% 30.06 in 10.0 mi WSW 11.5 mph - 0.00 in   Overcast
2:45 PM 32.0 °F 24.2 °F 26.6 °F 80% 30.06 in 10.0 mi WSW 9.2 mph - 0.00 in   Mostly Cloudy
3:05 PM 32.0 °F 24.2 °F 28.4 °F 87% 30.06 in 10.0 mi SW 9.2 mph - 0.00 in   Overcast
3:25 PM 32.0 °F 23.0 °F 26.6 °F 80% 30.06 in 10.0 mi SW 11.5 mph - 0.00 in   Overcast
3:45 PM 32.0 °F 22.5 °F 26.6 °F 80% 30.07 in 10.0 mi SW 12.7 mph - 0.00 in   Mostly Cloudy
4:05 PM 32.0 °F 24.2 °F 24.8 °F 75% 30.08 in 10.0 mi SW 9.2 mph - 0.00 in   Mostly Cloudy
4:25 PM 32.0 °F 24.8 °F 26.6 °F 80% 30.09 in 10.0 mi SW 8.1 mph - 0.00 in   Mostly Cloudy
4:45 PM 32.0 °F 22.5 °F 26.6 °F 80% 30.09 in 10.0 mi SSW 12.7 mph 17.3 mph 0.00 in   Mostly Cloudy
5:05 PM 32.0 °F 23.6 °F 26.6 °F 80% 30.09 in 10.0 mi SW 10.4 mph - 0.00 in   Scattered Clouds
5:25 PM 32.0 °F 23.0 °F 26.6 °F 80% 30.10 in 10.0 mi SSW 11.5 mph - 0.00 in   Mostly Cloudy
5:45 PM 32.0 °F 23.6 °F 26.6 °F 80% 30.11 in 10.0 mi SSW 10.4 mph - 0.00 in   Mostly Cloudy
6:05 PM 30.2 °F 21.9 °F 26.6 °F 86% 30.11 in 10.0 mi SSW 9.2 mph - 0.00 in   Scattered Clouds
6:25 PM 30.2 °F 22.6 °F 24.8 °F 80% 30.11 in 10.0 mi SSW 8.1 mph - 0.00 in   Clear
6:45 PM 30.2 °F 23.4 °F 26.6 °F 86% 30.11 in 10.0 mi SSW 6.9 mph - 0.00 in   Clear
7:05 PM 28.4 °F 22.2 °F 26.6 °F 93% 30.12 in 10.0 mi SSW 5.8 mph - 0.00 in   Clear
7:25 PM 28.4 °F 22.2 °F 26.6 °F 93% 30.12 in 10.0 mi South 5.8 mph - 0.00 in   Clear
7:45 PM 28.4 °F 22.2 °F 26.6 °F 93% 30.13 in 10.0 mi South 5.8 mph - 0.00 in   Clear
8:05 PM 28.4 °F 22.2 °F 26.6 °F 93% 30.14 in 10.0 mi South 5.8 mph - 0.00 in   Clear
8:25 PM 28.4 °F 21.2 °F 26.6 °F 93% 30.14 in 10.0 mi South 6.9 mph - 0.00 in   Clear
8:45 PM 28.4 °F 21.2 °F 26.6 °F 93% 30.14 in 10.0 mi South 6.9 mph - 0.00 in   Clear
9:05 PM 28.4 °F 21.2 °F 26.6 °F 93% 30.15 in 10.0 mi South 6.9 mph - 0.00 in   Clear
9:25 PM 28.4 °F 21.2 °F 26.6 °F 93% 30.14 in 10.0 mi South 6.9 mph - 0.00 in   Clear
9:45 PM 28.4 °F 21.2 °F 24.8 °F 86% 30.15 in 10.0 mi South 6.9 mph - 0.00 in   Clear
10:05 PM 28.4 °F 22.2 °F 24.8 °F 86% 30.16 in 10.0 mi South 5.8 mph - 0.00 in   Clear
10:25 PM 26.6 °F 19.1 °F 24.8 °F 93% 30.16 in 10.0 mi South 6.9 mph - 0.00 in   Clear
10:45 PM 26.6 °F 19.1 °F 26.6 °F 100% 30.17 in 10.0 mi South 6.9 mph - 0.00 in   Clear
11:05 PM 26.6 °F 19.1 °F 24.8 °F 93% 30.17 in 10.0 mi South 6.9 mph - 0.00 in   Clear
11:25 PM 26.6 °F 19.1 °F 24.8 °F 93% 30.17 in 10.0 mi South 6.9 mph - 0.00 in   Clear
11:45 PM 26.6 °F 19.1 °F 24.8 °F 93% 30.18 in 10.0 mi South 6.9 mph - 0.00 in   Clear